Hlavní strana
METAR-TAF:

METAR-TAF

Letiště :

Litchfield Municipal Airport

Litchfield, Illinois, Spojené státy americké

zeměpisná šířka: 39-09-44N, zeměpisná délka: 089-40-28W, výška: 210 m

Aktuální stav počasí

Zpráva byla vytvořena před 28 minutami, v 18:15 UTC
Severoseverozápadní vítr 12 kt s nárazy do 17 kt
Teplota 2°C
Vlhkost vzduchu 80%
Tlak 1025 hPa
Viditelnost: 16.1 km
Polojasno ve výšce 1800 ft
Oblačno až skoro zataženo ve výšce 2400 ft

METAR: K3LF 181815Z AUTO 33012G17KT 10SM SCT018 BKN024 02/M01 A3027 RMK AO2 T00201014

Čas: 12:43 (18:43 UTC)


TAF: chybějící

Stav a předpovědi počasí z více než 4 000 letišť (zprávy METAR a TAF).

Červené a žluté tečky na mapě představují dostupné meteorologické stanice.

Když kurzor umístíte na tečku, zobrazí se název stanice.

Pak kliknutím zobrazíte stav a předpověď počasí.

Chcete-li změnit mapu, kliknutím na zelené tlačítko se znaménkem +mapu přiblížíte, kliknutím na zelené tlačítko se znaménkem – mapu oddálíte a kliknutím na zelené šipky přejdete na sousední mapy.


METAR-TAF: